EW7460 Locust Grove VA US current weather conditions

sailwx.info

Wind from 175 at 1 knots gusting 3

Air temperature -0.0° C
Dewpoint -2.4° C

Last reported at 2020-Jan-27 11:07 UTC.
Time now 2020-Jan-27 12:13 UTC

Location: N 38°19' W 077°51'.
View on Google Maps.

See reports from other nearby stations

  
Tides and Currents Weather Stations Pressure Air Temp Water Temp Dewpoint Dewpoint Depression Visibility Wind Speed Wind Dir Waves Ship Positions
date/time (UTC)wind fromknots sea level pressurealtimeterstation pressurevisibilityair tempwater tempwave heightnotes
2020-Jan-27 11:07 175 1 gusting 3 -0.0
2020-Jan-27 11:02 175 2 gusting 4 -0.0
2020-Jan-27 10:56 154 2 gusting 4 -0.0
2020-Jan-27 10:51 181 1 gusting 3 -0.0
2020-Jan-27 10:46 182 1 gusting 2 -0.0
2020-Jan-27 10:41 182 1 gusting 3 -0.0
2020-Jan-27 10:36 182 1 gusting 3 -0.0
2020-Jan-27 10:31 182 1 gusting 3 -0.0
2020-Jan-27 10:26 182 2 gusting 4 0.6
2020-Jan-27 10:21 164 2 gusting 4 0.6
2020-Jan-27 10:16 184 0 gusting 3 0.6
2020-Jan-27 10:11 184 0 gusting 1 0.6
2020-Jan-27 10:06 184 0 gusting 2 0.6
2020-Jan-27 10:01 184 1 gusting 3 0.6
2020-Jan-27 09:56 184 1 gusting 3 0.6
2020-Jan-27 09:51 215 1 gusting 3 0.6
2020-Jan-27 09:46 209 2 gusting 4 0.6
2020-Jan-27 09:41 190 2 gusting 4 -0.0
2020-Jan-27 09:36 207 1 gusting 4 -0.0
2020-Jan-27 09:31 205 1 gusting 2 -0.0
2020-Jan-27 09:26 205 1 gusting 3 -0.0
2020-Jan-27 09:21 178 1 gusting 3 -0.0
2020-Jan-27 09:16 178 1 gusting 5 -0.0
2020-Jan-27 09:11 178 2 gusting 5 -0.0
2020-Jan-27 09:06 175 2 gusting 4 -0.0
2020-Jan-27 09:01 173 1 gusting 2 0.6
2020-Jan-27 08:56 174 1 gusting 2 0.6
2020-Jan-27 08:51 174 1 gusting 2 0.6
2020-Jan-27 08:46 173 1 gusting 5 0.6
2020-Jan-27 08:41 174 2 gusting 5 0.6
2020-Jan-27 08:36 174 2 gusting 4 0.6
2020-Jan-27 08:31 167 3 gusting 5 0.6
2020-Jan-27 08:26 167 3 gusting 5 0.6
2020-Jan-27 08:21 166 2 gusting 4 0.6
2020-Jan-27 08:16 167 1 gusting 4 0.6
2020-Jan-27 08:11 148 0 gusting 2 0.6
2020-Jan-27 08:06 148 -0.0
2020-Jan-27 08:01 148 0 gusting 2 -0.0
2020-Jan-27 07:56 148 1 gusting 3 -0.0
2020-Jan-27 07:51 143 0 gusting 3 -0.0
2020-Jan-27 07:46 143 -0.0
2020-Jan-27 07:41 143 -0.0
2020-Jan-27 07:36 143 -0.0
2020-Jan-27 07:31 143 -0.0
2020-Jan-27 07:26 143 -0.0
2020-Jan-27 07:21 143 -0.0
2020-Jan-27 07:16 143 0 gusting 2 -0.0
2020-Jan-27 07:11 143 -0.0
2020-Jan-27 07:06 150 -0.0
2020-Jan-27 07:01 150 -0.0
2020-Jan-27 06:56 150 -0.0
2020-Jan-27 06:51 150 -0.0
2020-Jan-27 06:46 150 -0.0
2020-Jan-27 06:41 150 -0.0
2020-Jan-27 06:36 150 -0.0
2020-Jan-27 06:31 150 0 gusting 2 -0.0
2020-Jan-27 06:26 150 0 gusting 2 -0.0
2020-Jan-27 06:20 150 0 gusting 2 -0.0
2020-Jan-27 06:15 150 0.6
2020-Jan-27 06:10 150 0.6
2020-Jan-27 06:06 150 0 gusting 2 0.6
2020-Jan-27 06:00 150 0 gusting 2 0.6
2020-Jan-27 05:55 150 0 gusting 2 0.6
2020-Jan-27 05:50 150 0.6
2020-Jan-27 05:45 155 0.6
2020-Jan-27 05:40 155 0.6
2020-Jan-27 05:35 155 0.6
2020-Jan-27 05:30 155 0.6
2020-Jan-27 05:25 155 0.6
2020-Jan-27 05:20 155 0.6
2020-Jan-27 05:15 155 1.1
2020-Jan-27 05:10 155 1.1
2020-Jan-27 05:05 155 1.1
2020-Jan-27 05:00 155 1.1
2020-Jan-27 04:55 157 1.1
2020-Jan-27 04:50 160 0 gusting 4 1.7
2020-Jan-27 04:45 161 2 gusting 4 1.7
2020-Jan-27 04:40 161 1 gusting 4 1.7
2020-Jan-27 04:35 185 2.2
2020-Jan-27 04:30 185 2.2
2020-Jan-27 04:25 185 1 gusting 2 2.2
2020-Jan-27 04:20 185 1 gusting 3 2.2
2020-Jan-27 04:15 186 1 gusting 3 2.8
2020-Jan-27 04:10 217 0 gusting 2 2.8
2020-Jan-27 04:05 217 3.3
2020-Jan-27 04:00 217 3.3
2020-Jan-27 03:55 217 0 gusting 2 3.3
2020-Jan-27 03:50 217 1 gusting 3 3.3
2020-Jan-27 03:45 217 1 gusting 3 3.9
2020-Jan-27 03:40 218 1 gusting 3 3.9
2020-Jan-27 03:35 218 2 gusting 3 3.9
2020-Jan-27 03:30 218 2 gusting 4 3.9
2020-Jan-27 03:25 221 2 gusting 4 4.4
2020-Jan-27 03:20 227 1 gusting 3 4.4
2020-Jan-27 03:15 227 1 gusting 3 4.4
2020-Jan-27 03:10 227 2 gusting 4 4.4
2020-Jan-27 03:00 266 3 gusting 6 4.4
2020-Jan-27 02:55 275 3 gusting 6 4.4
2020-Jan-27 02:50 273 3 gusting 6 4.4
2020-Jan-27 02:45 281 3 gusting 6 5.0
2020-Jan-27 02:40 265 3 gusting 7 5.0
2020-Jan-27 02:35 281 3 gusting 7 5.0
2020-Jan-27 02:30 278 4 gusting 7 5.0
2020-Jan-27 02:25 263 3 gusting 7 5.6
2020-Jan-27 02:20 275 3 gusting 6 5.6
2020-Jan-27 02:15 263 3 gusting 6 5.6
2020-Jan-27 02:10 244 2 gusting 6 5.6
2020-Jan-27 02:05 258 2 gusting 6 5.6
2020-Jan-27 02:00 262 2 gusting 6 5.6
2020-Jan-27 01:55 254 2 gusting 6 5.6
2020-Jan-27 01:50 259 4 gusting 6 5.6
2020-Jan-27 01:44 293 4 gusting 6 5.6
2020-Jan-27 01:39 276 3 gusting 6 5.6
2020-Jan-27 01:34 280 3 gusting 6 5.6
2020-Jan-27 01:29 265 4 gusting 6 6.1
2020-Jan-27 01:24 275 5 gusting 9 6.1
2020-Jan-27 01:19 274 5 gusting 9 6.1
2020-Jan-27 01:14 284 4 gusting 7 6.1
2020-Jan-27 01:09 269 4 gusting 7 6.1
2020-Jan-27 01:04 263 5 gusting 8 6.1
2020-Jan-27 00:59 259 4 gusting 8 6.1
2020-Jan-27 00:54 278 4 gusting 7 6.1
2020-Jan-27 00:49 290 3 gusting 7 6.1
2020-Jan-27 00:44 279 4 gusting 7 6.7
2020-Jan-27 00:39 300 3 gusting 7 6.7
2020-Jan-27 00:34 275 3 gusting 7 6.7
2020-Jan-27 00:29 254 4 gusting 8 6.7
2020-Jan-27 00:24 272 3 gusting 8 6.7
2020-Jan-27 00:19 240 3 gusting 6 6.7
2020-Jan-27 00:14 273 4 gusting 6 6.7
2020-Jan-27 00:09 293 5 gusting 8 6.7
2020-Jan-27 00:04 291 5 gusting 8 6.7
2020-Jan-26 23:59 309 4 gusting 8 6.7
2020-Jan-26 23:54 281 4 gusting 7 7.2
2020-Jan-26 23:49 275 5 gusting 11 7.2
2020-Jan-26 23:44 309 6 gusting 11 7.2
2020-Jan-26 23:39 284 5 gusting 10 7.2
2020-Jan-26 23:34 275 3 gusting 7 7.2
2020-Jan-26 23:29 290 3 gusting 7 7.2
2020-Jan-26 23:24 298 4 gusting 8 7.2
2020-Jan-26 23:19 292 4 gusting 8 7.2
2020-Jan-26 23:14 294 4 gusting 7 7.8
2020-Jan-26 23:09 281 4 gusting 7 7.8
2020-Jan-26 23:04 267 4 gusting 7 7.8
2020-Jan-26 22:59 271 3 gusting 7 7.8
2020-Jan-26 22:54 236 1 gusting 6 7.8
2020-Jan-26 22:49 285 2 gusting 6 7.8
2020-Jan-26 22:44 263 2 gusting 6 7.8
2020-Jan-26 22:39 279 2 gusting 5 7.8
2020-Jan-26 22:34 267 2 gusting 5 7.8
2020-Jan-26 22:29 280 2 gusting 8 7.8
2020-Jan-26 22:24 275 2 gusting 8 7.8
2020-Jan-26 22:19 249 2 gusting 7 7.8
2020-Jan-26 22:14 277 1 gusting 5 7.8
2020-Jan-26 22:09 257 1 gusting 6 7.8
2020-Jan-26 22:04 288 2 gusting 6 8.3
2020-Jan-26 21:59 292 3 gusting 6 8.3
2020-Jan-26 21:54 282 3 gusting 6 8.3
2020-Jan-26 21:49 297 3 gusting 6 8.3
2020-Jan-26 21:44 284 2 gusting 6 8.3
2020-Jan-26 21:39 279 1 gusting 6 8.3
2020-Jan-26 21:34 287 1 gusting 4 8.3
2020-Jan-26 21:29 296 1 gusting 3 8.3
2020-Jan-26 21:24 300 1 gusting 4 8.3
2020-Jan-26 21:19 300 3 gusting 6 8.3
2020-Jan-26 21:14 311 3 gusting 6 8.3
2020-Jan-26 21:09 314 3 gusting 6 8.3
2020-Jan-26 21:04 317 4 gusting 7 8.3
2020-Jan-26 20:59 305 5 gusting 10 8.3
2020-Jan-26 20:54 323 6 gusting 10 8.3
2020-Jan-26 20:49 321 6 gusting 10 8.3
2020-Jan-26 20:44 300 7 gusting 11 8.3
2020-Jan-26 20:39 297 7 gusting 11 8.3
2020-Jan-26 20:34 314 6 gusting 10 8.3
2020-Jan-26 20:29 304 6 gusting 9 8.3
2020-Jan-26 20:24 316 6 gusting 10 8.3
2020-Jan-26 20:19 265 6 gusting 10 8.3
2020-Jan-26 20:14 314 6 gusting 11 8.3
2020-Jan-26 20:09 301 6 gusting 11 8.3
2020-Jan-26 20:03 284 7 gusting 11 8.3
2020-Jan-26 19:58 296 7 gusting 12 8.3
2020-Jan-26 19:53 286 7 gusting 12 8.9
2020-Jan-26 19:48 263 6 gusting 12 8.9
2020-Jan-26 19:43 295 6 gusting 11 8.9
2020-Jan-26 19:38 309 6 gusting 11 8.9
2020-Jan-26 19:33 253 5 gusting 9 8.9
2020-Jan-26 19:28 275 5 gusting 9 8.9
2020-Jan-26 19:23 261 5 gusting 8 8.9
2020-Jan-26 19:18 304 5 gusting 8 8.9
2020-Jan-26 19:13 286 5 gusting 12 8.9
2020-Jan-26 19:08 298 6 gusting 12 8.9
2020-Jan-26 19:03 294 6 gusting 11 8.9
2020-Jan-26 18:58 282 6 gusting 10 8.9
2020-Jan-26 18:53 310 7 gusting 13 8.9
2020-Jan-26 18:48 309 6 gusting 13 9.4
2020-Jan-26 18:43 315 2 gusting 9 9.4
2020-Jan-26 18:38 207 0 gusting 3 9.4
2020-Jan-26 18:33 309 0 gusting 3 9.4
2020-Jan-26 18:28 319 0 gusting 2 9.4
2020-Jan-26 18:23 319 0 gusting 3 9.4
2020-Jan-26 18:18 321 1 gusting 3 9.4
2020-Jan-26 18:13 294 1 gusting 6 9.4
2020-Jan-26 18:08 254 2 gusting 6 9.4
2020-Jan-26 18:03 9.4
2020-Jan-26 17:58 227 3 gusting 7 9.4
2020-Jan-26 17:53 206 3 gusting 7 9.4
2020-Jan-26 17:48 255 4 gusting 7 9.4
2020-Jan-26 17:43 315 5 gusting 11 8.9
2020-Jan-26 17:38 239 4 gusting 11 8.9
2020-Jan-26 17:33 262 4 gusting 8 8.3
2020-Jan-26 17:28 309 4 gusting 8 8.3
2020-Jan-26 17:23 331 3 gusting 7 8.3
2020-Jan-26 17:18 325 6 gusting 12 8.3
2020-Jan-26 17:13 341 6 gusting 12 8.3
2020-Jan-26 17:08 288 5 gusting 9 7.8
2020-Jan-26 17:03 313 2 gusting 9 7.8
2020-Jan-26 16:58 331 2 gusting 6 7.8
2020-Jan-26 16:53 348 2 gusting 6 7.8
2020-Jan-26 16:48 331 3 gusting 9 7.8
2020-Jan-26 16:43 302 5 gusting 9 8.3
2020-Jan-26 16:38 263 5 gusting 11 8.3
2020-Jan-26 16:33 324 3 gusting 11 8.3
2020-Jan-26 16:28 333 2 gusting 7 8.3
2020-Jan-26 16:23 276 4 gusting 8 7.8
2020-Jan-26 16:18 282 5 gusting 8 7.8
2020-Jan-26 16:13 349 4 gusting 7 7.8
2020-Jan-26 16:08 343 4 gusting 9 7.8
2020-Jan-26 16:03 321 3 gusting 9 7.8
2020-Jan-26 15:58 316 0 gusting 7 7.8
2020-Jan-26 15:53 178 7.8
2020-Jan-26 15:48 178 7.2
2020-Jan-26 15:43 248 7.2
2020-Jan-26 15:38 275 6.7
2020-Jan-26 15:33 332 6.1
2020-Jan-26 15:28 338 6.1
2020-Jan-26 15:23 338 5.6
2020-Jan-26 15:18 344 5.0
2020-Jan-26 15:13 342 5.0
2020-Jan-26 15:08 349 4.4
2020-Jan-26 15:03 348 3.9
2020-Jan-26 14:58 015 3.9
2020-Jan-26 14:53 015 3.3
2020-Jan-26 14:47 010 3.3
2020-Jan-26 14:42 234 3.3
2020-Jan-26 14:37 157 2.8
2020-Jan-26 14:32 157 2.2
2020-Jan-26 14:27 157 1.7
2020-Jan-26 14:22 157 1.7
2020-Jan-26 14:17 157 1.7
2020-Jan-26 14:12 157 1.1
2020-Jan-26 14:07 157 1.1
2020-Jan-26 14:02 157 0.6
2020-Jan-26 13:57 157 0.6
2020-Jan-26 13:52 157 -0.0
2020-Jan-26 13:47 157 -0.0
2020-Jan-26 13:42 157 -0.6
2020-Jan-26 13:37 157 -0.6
2020-Jan-26 13:32 157 -0.6
2020-Jan-26 13:27 157 -1.1
2020-Jan-26 13:22 157 -1.1
2020-Jan-26 13:17 157 -1.7
2020-Jan-26 13:12 157 -1.7
2020-Jan-26 13:07 157 -1.7
2020-Jan-26 13:02 157 -1.7
2020-Jan-26 12:57 157 -2.2
2020-Jan-26 12:52 157 -2.2
2020-Jan-26 12:47 157 -1.7
2020-Jan-26 12:42 157 -1.7
2020-Jan-26 12:37 157 -1.7
2020-Jan-26 12:32 157 -1.7
2020-Jan-26 12:27 157 -1.7
2020-Jan-26 12:22 157 -2.2
2020-Jan-26 12:17 157 -1.7
2020-Jan-26 12:12 157 -1.7
2020-Jan-26 12:07 157 -1.7
2020-Jan-26 12:02 157 -1.7
2020-Jan-26 11:57 157 -1.7
2020-Jan-26 11:52 157 -1.7
2020-Jan-26 11:47 157 -1.7
2020-Jan-26 11:42 157 -1.7
2020-Jan-26 11:37 157 -1.1
2020-Jan-26 11:31 157 -1.1
2020-Jan-26 11:26 157 -1.1
2020-Jan-26 11:21 157 -1.1
2020-Jan-26 11:16 157 -1.1
2020-Jan-26 11:11 157 -1.1
2020-Jan-26 11:06 157 -1.1
2020-Jan-26 11:01 157 -1.1
2020-Jan-26 10:56 157 -1.1
2020-Jan-26 10:51 157 -1.1
2020-Jan-26 10:46 157 -1.1
2020-Jan-26 10:41 157 -1.1
2020-Jan-26 10:36 157 -1.1
2020-Jan-26 10:31 157 -1.1
2020-Jan-26 10:26 157 -1.1
2020-Jan-26 10:21 157 -1.1
2020-Jan-26 10:16 157 -1.1
2020-Jan-26 10:11 157 -1.1
2020-Jan-26 10:06 159 0 gusting 4 -1.1
2020-Jan-26 10:01 159 0 gusting 4 -1.1
2020-Jan-26 09:56 146 -1.1
2020-Jan-26 09:51 144 -1.1
2020-Jan-26 09:46 144 -1.1
2020-Jan-26 09:41 144 -1.1
2020-Jan-26 09:36 144 -1.1
2020-Jan-26 09:31 144 -1.1
2020-Jan-26 09:26 165 -1.1
2020-Jan-26 09:21 165 -1.1
2020-Jan-26 09:16 165 -1.1
2020-Jan-26 09:11 165 -1.1
2020-Jan-26 09:06 165 -1.1
2020-Jan-26 09:01 165 -1.1
2020-Jan-26 08:56 165 -1.1
2020-Jan-26 08:51 165 -1.1
2020-Jan-26 08:46 165 -1.1
2020-Jan-26 08:41 168 -1.1
2020-Jan-26 08:36 168 -0.6
2020-Jan-26 08:31 168 -0.6
2020-Jan-26 08:26 168 -0.6
2020-Jan-26 08:21 168 -0.6
2020-Jan-26 08:16 168 -0.6
2020-Jan-26 08:11 168 -0.6
2020-Jan-26 08:06 168 -0.6
2020-Jan-26 08:01 168 -0.6
2020-Jan-26 07:56 168 -0.6
2020-Jan-26 07:51 168 -0.6
2020-Jan-26 07:46 168 -0.6
2020-Jan-26 07:41 168 -0.6
2020-Jan-26 07:36 168 -0.0
2020-Jan-26 07:31 168 -0.0
2020-Jan-26 07:26 168 -0.0
2020-Jan-26 07:21 168 -0.0
2020-Jan-26 07:16 168 -0.0
2020-Jan-26 07:11 168 -0.0
2020-Jan-26 07:06 167 0.6
2020-Jan-26 07:01 167 0.6
2020-Jan-26 06:55 168 0.6
2020-Jan-26 06:50 168 0.6
2020-Jan-26 06:45 168 0.6
2020-Jan-26 06:41 167 1.1
2020-Jan-26 06:35 168 1.1
2020-Jan-26 06:30 168 1.1
2020-Jan-26 06:25 168 1.1
2020-Jan-26 06:20 167 1.1
2020-Jan-26 06:18 172 1.1
2020-Jan-26 06:10 182 1.1
2020-Jan-26 06:08 182 1.7
2020-Jan-26 06:03 182 1.7
2020-Jan-26 05:55 182 1.7
2020-Jan-26 05:50 182 2.2
2020-Jan-26 05:45 182 2.2
2020-Jan-26 05:40 182 2.2
2020-Jan-26 05:35 182 2.2
2020-Jan-26 05:30 182 2.2
2020-Jan-26 05:25 182 2.8
2020-Jan-26 05:20 182 2.8
2020-Jan-26 05:15 182 2.8
2020-Jan-26 05:13 182 2.8
2020-Jan-26 05:05 182 2.8
2020-Jan-26 05:00 182 2.8
2020-Jan-26 04:55 182 2.8
2020-Jan-26 04:50 182 2.8
2020-Jan-26 04:45 182 2.8
2020-Jan-26 04:40 182 2.8
2020-Jan-26 04:35 182 2.8
2020-Jan-26 04:30 182 3.3
2020-Jan-26 04:25 182 3.3
2020-Jan-26 04:20 182 3.3
2020-Jan-26 04:15 182 3.3
2020-Jan-26 04:10 182 3.3
2020-Jan-26 04:05 182 3.3
2020-Jan-26 04:00 182 3.3
2020-Jan-26 03:55 182 3.3
2020-Jan-26 03:50 182 3.3
2020-Jan-26 03:45 182 3.3
2020-Jan-26 03:40 182 3.3
2020-Jan-26 03:35 182 3.3
2020-Jan-26 03:30 182 3.3
2020-Jan-26 03:25 182 3.3
2020-Jan-26 03:20 182 3.3
2020-Jan-26 03:15 182 3.3
2020-Jan-26 03:10 182 3.9
2020-Jan-26 03:05 182 3.9
2020-Jan-26 03:00 182 3.9
2020-Jan-26 02:54 182 3.9
2020-Jan-26 02:50 182 3.9
2020-Jan-26 02:44 182 3.9
2020-Jan-26 02:39 182 3.9
2020-Jan-26 02:34 182 3.9
2020-Jan-26 02:29 182 3.3
2020-Jan-26 02:24 183 3.3
2020-Jan-26 02:19 182 3.3
2020-Jan-26 02:14 182 0 gusting 3 3.3
2020-Jan-26 02:09 182 1 gusting 3 3.3
2020-Jan-26 02:04 126 1 gusting 3 3.3
2020-Jan-26 01:59 180 0 gusting 3 3.3
2020-Jan-26 01:54 186 0 gusting 3 3.3
2020-Jan-26 01:49 103 1 gusting 3 3.9
2020-Jan-26 01:44 095 0 gusting 2 3.9
2020-Jan-26 01:39 096 1 gusting 3 3.9
2020-Jan-26 01:34 261 1 gusting 3 3.9
2020-Jan-26 01:29 164 1 gusting 4 3.9
2020-Jan-26 01:24 165 1 gusting 5 3.9
2020-Jan-26 01:19 244 2 gusting 5 4.4
2020-Jan-26 01:14 095 2 gusting 5 4.4
2020-Jan-26 01:09 261 1 gusting 5 4.4
2020-Jan-26 01:04 105 0 gusting 3 4.4
2020-Jan-26 00:59 211 0 gusting 2 4.4
2020-Jan-26 00:54 046 4.4
2020-Jan-26 00:49 046 4.4
2020-Jan-26 00:44 046 4.4
2020-Jan-26 00:39 046 4.4
2020-Jan-26 00:34 046 4.4
2020-Jan-26 00:29 046 4.4
2020-Jan-26 00:24 046 5.0
2020-Jan-26 00:19 046 5.0
2020-Jan-26 00:14 046 5.0
2020-Jan-26 00:09 046 5.0
2020-Jan-26 00:04 046 5.0
2020-Jan-25 23:59 046 5.6
2020-Jan-25 23:54 046 5.6
2020-Jan-25 23:49 046 5.6
2020-Jan-25 23:44 046 5.6
2020-Jan-25 23:39 046 6.1
2020-Jan-25 23:34 046 6.1
2020-Jan-25 23:29 046 6.1
2020-Jan-25 23:24 046 6.1
2020-Jan-25 23:19 046 6.7
2020-Jan-25 23:14 046 6.7
2020-Jan-25 23:09 046 6.7
2020-Jan-25 23:04 046 7.2
2020-Jan-25 22:59 046 7.2
2020-Jan-25 22:54 046 7.8
2020-Jan-25 22:49 046 7.8
2020-Jan-25 22:44 046 8.3
2020-Jan-25 22:39 046 8.3
2020-Jan-25 22:33 046 8.3
2020-Jan-25 22:28 046 8.9
2020-Jan-25 22:23 046 8.9
2020-Jan-25 22:18 046 8.9
2020-Jan-25 22:13 046 8.9
2020-Jan-25 22:08 046 9.4
2020-Jan-25 22:03 046 9.4
2020-Jan-25 21:58 046 9.4
2020-Jan-25 21:53 046 9.4
2020-Jan-25 21:48 046 0 gusting 2 9.4
2020-Jan-25 21:43 046 0 gusting 2 9.4
2020-Jan-25 21:38 046 0 gusting 3 9.4
2020-Jan-25 21:33 045 1 gusting 3 9.4
2020-Jan-25 21:28 109 1 gusting 3 9.4
2020-Jan-25 21:23 104 1 gusting 3 9.4
2020-Jan-25 21:18 092 1 gusting 3 8.9
2020-Jan-25 21:13 101 1 gusting 3 8.9
2020-Jan-25 21:08 107 1 gusting 2 8.9
2020-Jan-25 21:03 042 1 gusting 3 8.3
2020-Jan-25 20:58 041 1 gusting 3 8.3
2020-Jan-25 20:53 005 1 gusting 3 8.9
2020-Jan-25 20:48 346 2 gusting 6 8.9
2020-Jan-25 20:43 355 3 gusting 7 8.9
2020-Jan-25 20:38 350 3 gusting 7 9.4
2020-Jan-25 20:33 355 5 gusting 11 9.4
2020-Jan-25 20:28 015 5 gusting 11 9.4
2020-Jan-25 20:23 326 5 gusting 10 10.0
2020-Jan-25 20:18 026 5 gusting 11 10.6
2020-Jan-25 20:13 355 2 gusting 11 11.1
2020-Jan-25 20:08 025 1 gusting 4 11.1
2020-Jan-25 20:03 022 1 gusting 4 11.1
2020-Jan-25 19:58 015 1 gusting 4 11.1
2020-Jan-25 19:53 060 2 gusting 6 10.6
2020-Jan-25 19:48 024 2 gusting 6 10.6
2020-Jan-25 19:43 005 2 gusting 6 10.6
2020-Jan-25 19:38 346 2 gusting 4 10.6
2020-Jan-25 19:33 324 2 gusting 4 10.6
2020-Jan-25 19:28 030 2 gusting 4 10.6
2020-Jan-25 19:23 059 1 gusting 4 10.6
2020-Jan-25 19:18 325 2 gusting 4 10.6
2020-Jan-25 19:13 348 2 gusting 4 10.6
2020-Jan-25 19:08 320 1 gusting 4 10.0
2020-Jan-25 19:03 005 1 gusting 3 10.0
2020-Jan-25 18:58 333 0 gusting 3 10.0
2020-Jan-25 18:53 10.0
2020-Jan-25 18:48 046 0 gusting 3 10.6
2020-Jan-25 18:43 336 0 gusting 3 10.0
2020-Jan-25 18:38 333 1 gusting 3 10.0
2020-Jan-25 18:32 309 1 gusting 4 10.0
2020-Jan-25 18:28 295 0 gusting 4 10.0
2020-Jan-25 18:22 005 10.0
2020-Jan-25 18:17 306 0 gusting 4 10.0
2020-Jan-25 18:12 017 0 gusting 4 9.4
2020-Jan-25 18:07 039 0 gusting 3 9.4
2020-Jan-25 18:02 039 0 gusting 3 9.4
2020-Jan-25 17:57 005 9.4
2020-Jan-25 17:52 005 9.4
2020-Jan-25 17:47 005 9.4
2020-Jan-25 17:42 005 9.4
2020-Jan-25 17:37 355 9.4
2020-Jan-25 17:32 9.4
2020-Jan-25 17:27 333 0 gusting 2 8.9
2020-Jan-25 17:22 327 0 gusting 3 9.4
2020-Jan-25 17:17 332 0 gusting 3 9.4
2020-Jan-25 17:12 306 8.9
2020-Jan-25 17:07 325 8.9
2020-Jan-25 17:02 324 8.9
2020-Jan-25 16:57 323 8.9
2020-Jan-25 16:52 327 8.9
2020-Jan-25 16:47 322 8.9
2020-Jan-25 16:42 335 8.9
2020-Jan-25 16:37 335 8.9
2020-Jan-25 16:32 335 8.9
2020-Jan-25 16:27 335 8.9
2020-Jan-25 16:22 335 8.9
2020-Jan-25 16:17 335 8.9
2020-Jan-25 16:12 335 8.9
2020-Jan-25 16:07 335 8.9
2020-Jan-25 16:02 335 8.9
2020-Jan-25 15:57 335 8.9
2020-Jan-25 15:52 335 8.9
2020-Jan-25 15:47 335 8.9
2020-Jan-25 15:42 335 8.9
2020-Jan-25 15:37 335 8.9
2020-Jan-25 15:32 335 8.9
2020-Jan-25 15:27 335 8.9
2020-Jan-25 15:22 332 8.9
2020-Jan-25 15:17 336 0 gusting 3 8.9
2020-Jan-25 15:12 310 0 gusting 3 8.9
2020-Jan-25 15:07 300 8.9
2020-Jan-25 15:02 299 8.9
2020-Jan-25 14:57 300 8.9
2020-Jan-25 14:52 298 8.9
2020-Jan-25 14:47 298 8.9
2020-Jan-25 14:42 312 8.9
2020-Jan-25 14:37 312 8.9
2020-Jan-25 14:32 312 8.9
2020-Jan-25 14:27 311 8.9
2020-Jan-25 14:22 311 8.9
2020-Jan-25 14:17 311 8.3
2020-Jan-25 14:12 311 8.3
2020-Jan-25 14:07 311 8.3
2020-Jan-25 14:02 312 8.3
2020-Jan-25 13:57 312 8.3
2020-Jan-25 13:52 311 8.3
2020-Jan-25 13:47 311 8.3
2020-Jan-25 13:41 311 8.3
2020-Jan-25 13:36 311 8.3
2020-Jan-25 13:31 311 8.3
2020-Jan-25 13:26 315 8.3
2020-Jan-25 13:21 315 8.3
2020-Jan-25 13:16 315 8.3
2020-Jan-25 13:11 315 8.3
2020-Jan-25 13:06 315 8.3
2020-Jan-25 13:01 315 8.3
2020-Jan-25 12:56 315 8.3
2020-Jan-25 12:51 325 8.3
2020-Jan-25 12:46 325 8.3
2020-Jan-25 12:41 325 0 gusting 3 8.3
2020-Jan-25 12:36 325 2 gusting 6 8.3
2020-Jan-25 12:31 306 2 gusting 6 8.3
2020-Jan-25 12:26 331 0 gusting 3 8.3
2020-Jan-25 12:21 311 8.3
2020-Jan-25 12:16 311 8.3
2020-Jan-25 12:11 336 8.3
2020-Jan-25 12:06 336 8.3
2020-Jan-25 12:01 249 8.3